Wind_Speed
6 6 6 5 6 6 8 10 6 8 8 9 8 7 9 9 9 9 10 11 9 9 8 8 8 8 8 8 8 9 9 10 10 11 11 11 10 10 9 9 9 9 8 8 8 7 6 6 5
6 6 6 6 9 12 12 10 8 10 11 10 10 8 11 10 10 10 10 11 10 9 9 9 9 8 8 8 9 9 9 10 11 11 11 11 11 10 10 9 9 9 9 8 8 7 7 6 6
7 6 6 6 9 13 13 11 11 12 13 12 12 12 11 11 11 11 11 12 11 10 10 9 9 9 9 9 9 10 10 11 11 12 12 12 11 11 11 10 10 10 10 9 9 8 8 8 7
8 7 6 5 8 8 11 13 13 12 14 13 13 14 13 13 13 13 13 12 11 11 10 10 9 9 10 10 10 11 12 12 12 13 13 13 13 12 12 12 11 11 11 10 10 10 10 9 9
10 8 5 7 10 8 12 16 14 11 14 14 14 16 16 15 15 15 15 14 12 12 12 11 11 11 11 11 12 13 13 14 14 14 14 14 14 14 14 14 14 13 12 12 12 12 12 11 11
13 11 7 4 8 11 15 20 15 11 12 14 14 17 16 16 15 15 16 15 13 12 12 12 12 13 14 15 15 16 16 16 17 17 17 17 17 17 16 16 16 15 15 14 14 14 14 14 14
15 14 11 6 5 11 18 22 19 14 14 15 15 18 19 16 15 15 16 15 15 14 14 14 15 16 16 17 18 18 19 19 20 20 20 20 21 20 20 19 19 18 18 17 16 16 16 16 16
17 17 13 6 3 10 18 22 19 16 16 17 17 19 22 16 15 15 16 16 16 16 17 17 17 18 19 19 20 20 21 21 22 23 23 23 23 23 23 23 22 22 21 20 19 19 19 18 18
20 19 14 7 6 12 16 19 16 17 17 19 19 20 21 17 15 16 17 17 18 18 18 18 19 20 21 21 21 22 22 23 24 25 26 26 26 26 26 26 26 25 24 23 22 22 21 20 20
22 21 17 13 14 18 19 20 17 17 17 21 20 19 19 18 18 17 18 18 19 20 20 20 20 21 22 23 23 24 25 26 27 28 28 29 30 30 30 29 28 28 27 27 26 25 23 22 22
24 23 20 19 19 22 22 21 19 18 20 25 25 22 21 22 22 19 19 20 21 22 22 22 22 23 24 25 25 26 27 28 29 30 30 31 32 32 33 32 31 30 30 29 28 28 26 24 23
25 24 23 22 22 24 24 23 21 22 25 28 28 26 25 25 25 22 22 23 22 24 25 25 25 26 27 28 29 29 30 30 31 32 32 32 33 34 34 34 34 32 31 30 31 29 28 26 25
23 23 23 23 23 24 24 23 23 24 27 27 27 27 26 26 27 25 26 24 25 26 28 28 28 29 30 31 32 32 32 33 34 34 33 33 35 36 36 36 36 35 34 33 32 31 30 29 27
20 20 21 20 21 21 22 21 22 24 26 26 27 26 26 27 28 29 29 29 29 29 30 30 31 32 33 34 34 36 36 35 36 36 35 35 35 35 37 38 37 36 36 35 34 33 32 30 29
17 16 15 16 18 18 19 18 20 24 24 25 25 25 25 27 28 29 30 30 31 31 32 33 33 34 35 36 37 38 37 37 37 37 36 36 36 37 37 37 37 37 37 37 35 33 32 31 29
9 10 11 12 17 16 15 17 22 24 23 23 24 23 23 25 27 28 30 31 32 32 33 34 34 35 36 37 39 39 39 39 39 39 38 38 38 37 38 36 36 37 35 34 34 33 33 31 30
7 9 11 13 15 12 14 20 23 23 22 22 22 22 22 23 25 27 28 29 31 32 32 34 35 36 38 40 40 41 41 40 40 40 40 39 39 39 38 36 36 35 34 34 33 33 32 32 31
8 11 11 12 13 13 16 21 23 22 22 21 20 20 21 22 23 24 26 27 29 30 32 34 36 38 40 40 40 40 40 40 41 40 40 40 39 38 38 36 35 32 32 31 31 31 30 31 30
8 8 9 10 14 16 18 20 21 21 20 21 20 20 20 20 21 23 24 26 27 29 31 34 36 38 39 39 40 40 40 40 40 40 40 39 38 37 36 35 33 31 30 28 29 31 31 30 31
9 10 10 13 17 16 17 18 19 18 17 17 17 17 18 20 21 23 24 26 28 30 32 34 35 36 38 39 40 40 40 40 39 39 38 38 37 37 35 34 33 32 30 29 30 31 32 32 32
9 12 13 15 16 16 15 18 19 17 13 13 14 15 17 18 20 22 24 25 27 29 31 33 35 36 38 39 39 39 39 39 40 39 38 38 38 37 36 35 34 33 31 30 31 31 32 33 32
11 11 12 13 14 15 17 21 19 16 10 10 12 14 16 17 19 20 22 24 26 28 30 32 34 35 36 37 38 38 39 40 40 40 40 39 39 38 38 37 35 34 32 32 31 31 31 33 33
10 10 11 13 16 19 20 21 19 13 9 10 11 14 17 19 21 22 24 25 27 29 30 32 33 34 35 37 38 40 41 42 42 42 41 41 41 40 40 39 38 37 36 35 33 33 33 34 34
8 10 13 15 18 20 18 17 15 13 15 14 16 17 19 21 23 24 25 26 28 29 31 32 33 35 36 38 40 41 42 43 43 43 43 43 43 42 41 41 40 40 39 38 36 35 34 34 35
7 11 16 16 16 13 10 13 11 11 16 18 20 21 22 23 25 26 27 28 29 31 32 34 36 37 39 40 41 42 43 44 44 44 44 44 44 44 44 42 42 42 41 41 40 40 39 38 38
7 10 15 17 20 17 11 13 8 11 17 19 21 22 24 25 27 28 30 31 32 34 36 37 39 40 41 42 42 43 44 44 45 45 45 45 45 45 45 44 44 44 44 44 44 44 44 43 42
8 8 10 12 15 17 19 20 16 15 19 21 23 24 25 27 29 31 32 34 35 37 39 40 41 42 43 44 43 43 43 44 44 44 45 45 45 45 45 45 45 45 46 46 46 47 48 48 46
11 10 10 9 10 12 18 21 21 22 22 23 25 26 28 29 31 33 35 36 37 39 41 42 44 45 45 44 44 43 43 43 44 44 45 46 46 47 47 47 46 46 46 47 48 49 49 50 51
11 12 11 10 9 8 14 21 22 23 23 24 26 28 29 31 33 35 36 38 39 41 43 44 45 45 45 45 45 44 44 44 45 45 46 47 47 48 49 49 49 49 49 49 49 50 51 52 52
10 12 12 12 10 10 11 21 23 24 24 25 27 29 31 33 34 36 37 39 41 43 44 44 45 45 45 45 44 44 44 45 46 47 48 48 48 49 49 50 50 50 50 50 50 51 52 53 54
Wind_Direction
19 18 15 10 354 2 38 52 18 340 335 333 332 326 301 304 303 298 292 292 294 292 293 294 298 302 306 313 319 323 324 326 328 328 328 330 332 335 336 336 336 337 340 340 339 340 339 339 337
359 357 353 351 347 2 14 13 349 335 329 331 328 316 303 315 310 307 300 297 295 292 292 293 295 300 305 311 316 320 321 322 323 322 321 322 324 328 329 329 328 327 327 327 326 324 321 319 317
338 336 343 351 1 357 352 332 323 330 322 325 323 309 307 311 311 305 301 299 297 293 293 294 295 299 305 311 315 316 317 318 319 318 318 317 318 319 320 320 319 318 317 315 313 312 307 303 301
320 323 337 354 8 349 319 308 310 321 315 321 313 297 302 305 306 304 302 301 298 296 295 296 298 302 307 312 316 316 315 316 316 316 315 314 315 315 315 314 312 310 309 305 303 301 296 291 288
306 308 319 357 347 319 307 303 308 316 310 309 304 293 297 301 302 302 302 300 297 297 298 299 301 305 308 311 313 312 312 313 312 312 311 310 309 310 311 310 309 307 304 300 297 293 289 285 281
298 296 297 325 313 308 297 293 305 302 301 297 293 287 293 296 298 300 301 301 298 297 299 301 304 305 306 308 309 309 309 309 309 309 308 307 305 304 304 304 304 302 299 296 293 289 286 282 278
291 289 287 263 269 295 289 292 300 296 292 286 287 294 292 294 298 300 300 301 298 298 298 301 305 306 306 307 308 307 307 307 306 306 306 305 304 302 301 300 299 297 294 291 288 285 282 278 276
285 283 283 271 286 290 284 289 297 297 288 286 285 285 287 295 298 301 299 300 301 302 302 303 305 306 306 307 307 307 306 306 305 305 304 303 301 300 299 297 296 293 291 288 285 281 279 275 272
280 278 277 260 252 262 268 279 286 286 292 288 282 276 285 291 293 297 297 300 303 305 305 304 304 305 305 306 306 305 306 306 304 303 302 300 299 299 296 294 292 290 287 286 285 280 277 271 268
276 273 267 247 245 250 252 264 270 275 280 278 273 276 286 291 291 293 295 299 302 304 304 305 305 305 306 306 307 306 306 306 304 302 299 298 297 297 295 292 290 289 286 283 281 279 277 271 266
274 270 262 248 247 252 254 260 262 263 262 265 270 275 282 290 290 288 291 294 297 300 302 303 304 305 306 306 307 306 306 307 306 303 300 297 296 296 296 292 289 287 286 283 278 276 272 269 266
273 271 264 257 254 257 258 260 258 255 257 263 269 271 276 283 286 287 288 287 292 296 298 301 303 304 306 305 305 305 305 304 305 303 300 298 295 295 294 293 289 287 284 282 277 274 269 265 264
273 271 269 264 262 263 264 261 257 259 262 265 267 269 269 274 281 282 285 286 291 293 295 297 299 300 301 302 303 303 304 303 303 304 302 300 297 294 292 291 290 287 284 281 277 272 267 262 263
272 271 271 268 264 264 265 263 261 262 265 264 266 267 269 272 276 279 282 286 289 289 290 292 294 296 297 299 300 301 300 301 301 303 301 300 299 296 292 292 288 286 284 279 277 274 267 263 262
277 274 274 271 268 266 268 263 258 262 264 265 267 268 269 272 275 276 279 282 285 286 287 288 290 292 293 295 296 298 296 298 300 302 301 300 298 296 294 292 289 287 284 280 276 272 267 264 261
291 290 288 269 259 261 264 260 260 264 264 267 270 270 270 270 272 274 277 279 282 284 284 285 286 289 291 293 295 296 296 297 297 298 298 297 297 296 295 293 290 287 284 281 273 270 268 263 260
315 289 272 256 250 256 259 261 265 266 270 272 273 273 272 271 272 274 276 278 280 280 282 283 285 287 290 291 292 294 296 295 295 294 294 295 296 295 295 293 292 286 281 277 271 268 264 261 258
279 273 257 248 255 259 267 270 272 275 276 278 278 276 274 274 274 275 277 278 280 280 280 282 284 286 288 291 292 292 293 293 293 292 291 294 293 292 293 292 292 287 283 276 269 265 261 260 256
276 271 267 260 261 270 276 275 274 275 279 281 282 280 279 279 280 279 279 280 280 281 281 282 286 287 288 290 291 291 292 292 292 290 291 291 291 290 290 289 288 284 282 277 268 263 261 259 255
267 263 259 261 271 275 275 272 273 272 276 283 286 285 284 283 282 281 281 280 281 282 283 285 287 288 289 290 291 291 291 290 290 290 290 290 289 289 288 287 285 282 280 275 270 264 259 256 254
258 255 252 262 270 274 270 269 268 266 272 284 291 292 290 289 287 286 286 287 286 286 286 287 289 290 290 292 292 291 290 289 289 289 289 289 287 286 285 283 283 280 278 274 270 263 260 253 250
274 260 259 270 275 278 276 269 272 269 282 291 296 296 296 297 296 294 293 293 292 292 292 291 293 293 293 293 293 292 292 291 290 289 289 288 287 285 283 282 280 277 275 275 272 261 259 253 249
289 289 273 267 264 262 265 271 279 291 304 312 312 308 305 304 303 301 300 298 297 297 297 297 297 297 296 295 295 294 294 293 292 290 289 287 286 284 282 280 279 277 273 272 269 263 260 254 251
295 293 284 277 267 267 267 279 296 320 328 323 323 317 312 309 308 307 305 304 303 302 302 302 302 301 300 299 298 297 296 294 293 291 290 288 286 283 281 279 277 275 272 269 266 262 258 255 253
300 304 305 311 311 300 292 282 288 338 337 332 326 320 317 315 314 312 310 309 308 307 306 306 305 304 303 302 300 299 297 295 294 292 290 288 286 284 281 279 276 274 271 267 263 260 257 255 253
314 314 323 328 328 330 328 312 316 346 338 330 323 319 318 316 315 314 314 313 312 311 311 310 309 308 306 305 303 301 299 297 295 293 291 289 287 285 282 279 276 273 270 266 263 260 257 254 252
321 314 315 324 333 333 336 334 336 336 332 326 322 320 319 319 318 318 317 316 315 314 313 312 311 310 309 307 305 303 300 299 297 294 292 290 288 285 282 280 276 273 269 265 263 260 257 254 252
329 323 317 318 326 336 332 327 330 327 325 323 321 321 321 321 320 320 319 318 317 316 315 314 313 312 311 309 306 304 302 300 298 296 293 291 288 285 282 280 276 273 269 265 262 259 256 255 253
320 316 314 311 309 319 324 314 316 318 319 320 320 321 322 322 322 321 321 320 319 318 317 315 314 313 312 310 308 305 303 302 300 297 295 292 289 285 282 279 277 273 269 265 261 258 256 254 252
319 321 320 318 321 327 326 307 313 316 320 321 321 321 321 322 322 322 322 321 320 319 317 316 315 314 313 311 309 307 305 303 302 299 296 293 290 286 283 279 276 273 269 265 262 258 255 253 252
Height
5922 5922 5922 5922 5922 5918 5914 5915 5919 5920 5919 5919 5918 5917 5915 5914 5915 5917 5914 5912 5913 5911 5911 5911 5911 5911 5910 5910 5909 5909 5909 5908 5908 5907 5906 5905 5904 5904 5903 5902 5902 5901 5900 5900 5899 5899 5899 5898 5898
5923 5923 5923 5923 5922 5917 5917 5918 5920 5921 5919 5918 5917 5916 5914 5914 5913 5913 5912 5911 5912 5910 5910 5910 5910 5910 5909 5909 5908 5908 5908 5907 5907 5906 5905 5904 5904 5903 5902 5902 5901 5900 5900 5900 5899 5899 5898 5898 5898
5922 5922 5923 5923 5921 5920 5920 5921 5921 5920 5919 5918 5916 5915 5914 5913 5913 5912 5911 5911 5911 5910 5909 5909 5909 5908 5908 5908 5907 5907 5906 5906 5906 5905 5904 5903 5903 5902 5901 5901 5900 5900 5899 5899 5898 5898 5898 5897 5897
5922 5922 5923 5924 5922 5923 5923 5922 5920 5920 5918 5917 5915 5912 5911 5911 5911 5911 5910 5910 5910 5909 5908 5908 5907 5907 5907 5906 5906 5905 5905 5905 5904 5903 5903 5902 5901 5901 5900 5899 5899 5898 5898 5897 5897 5897 5896 5896 5896
5920 5921 5923 5922 5922 5923 5923 5921 5920 5919 5917 5916 5914 5911 5910 5909 5909 5909 5908 5908 5908 5908 5907 5907 5906 5906 5905 5905 5904 5904 5903 5903 5902 5902 5901 5900 5900 5899 5898 5898 5897 5896 5896 5895 5895 5895 5895 5895 5894
5919 5920 5920 5921 5924 5924 5922 5919 5918 5918 5916 5913 5911 5907 5907 5907 5907 5907 5906 5906 5906 5906 5905 5905 5905 5904 5904 5903 5902 5902 5901 5901 5900 5900 5899 5898 5897 5897 5896 5895 5895 5894 5894 5893 5893 5892 5892 5892 5892
5917 5917 5917 5919 5923 5924 5921 5916 5916 5915 5913 5912 5909 5904 5904 5905 5904 5904 5904 5904 5903 5904 5903 5903 5903 5902 5901 5901 5900 5899 5899 5898 5897 5897 5896 5895 5894 5894 5893 5892 5892 5891 5891 5890 5890 5889 5889 5889 5889
5913 5914 5914 5917 5921 5924 5919 5915 5914 5912 5911 5909 5908 5904 5901 5901 5902 5902 5902 5901 5901 5901 5901 5901 5900 5900 5899 5898 5897 5896 5896 5895 5894 5893 5892 5891 5891 5890 5889 5889 5888 5887 5887 5886 5886 5886 5886 5886 5886
5910 5911 5912 5914 5917 5918 5916 5912 5912 5909 5908 5905 5903 5901 5899 5899 5899 5900 5899 5899 5898 5898 5898 5897 5897 5896 5896 5895 5894 5893 5892 5891 5890 5889 5888 5887 5886 5885 5884 5884 5883 5882 5882 5882 5882 5881 5881 5881 5881
5906 5906 5908 5909 5910 5911 5910 5908 5908 5907 5906 5900 5898 5896 5896 5896 5896 5897 5897 5896 5895 5894 5894 5894 5894 5893 5892 5891 5890 5889 5888 5887 5885 5884 5883 5881 5880 5879 5879 5878 5877 5876 5876 5876 5876 5876 5876 5876 5877
5900 5901 5902 5902 5903 5903 5903 5903 5903 5903 5901 5896 5894 5893 5894 5893 5893 5893 5893 5892 5892 5891 5890 5890 5890 5889 5888 5887 5886 5885 5884 5882 5880 5879 5877 5876 5874 5873 5872 5871 5871 5870 5870 5870 5870 5870 5870 5871 5871
5894 5894 5895 5896 5896 5896 5897 5897 5897 5896 5895 5892 5892 5891 5889 5890 5888 5888 5889 5887 5887 5887 5886 5885 5885 5885 5884 5882 5881 5880 5879 5877 5875 5873 5871 5870 5868 5866 5865 5864 5863 5863 5862 5862 5863 5863 5864 5864 5865
5888 5889 5889 5889 5890 5890 5891 5891 5891 5890 5888 5889 5887 5885 5886 5886 5885 5884 5882 5882 5882 5882 5882 5882 5881 5881 5879 5877 5876 5874 5873 5871 5869 5866 5864 5863 5862 5860 5858 5857 5855 5855 5854 5855 5855 5856 5857 5857 5858
5883 5883 5884 5884 5884 5885 5885 5886 5885 5884 5883 5883 5882 5881 5881 5881 5881 5881 5879 5878 5879 5878 5878 5877 5877 5876 5874 5872 5871 5869 5867 5865 5863 5861 5858 5856 5855 5853 5851 5849 5848 5847 5846 5846 5847 5847 5849 5850 5851
5878 5879 5879 5880 5880 5880 5881 5881 5880 5878 5878 5877 5877 5877 5877 5877 5877 5876 5876 5875 5874 5874 5873 5873 5872 5871 5869 5867 5865 5863 5861 5859 5857 5854 5852 5849 5847 5845 5843 5841 5839 5838 5838 5838 5838 5839 5840 5842 5844
5874 5875 5876 5877 5876 5876 5878 5877 5874 5873 5872 5872 5873 5873 5873 5873 5872 5872 5871 5870 5869 5869 5868 5867 5866 5865 5863 5861 5859 5856 5853 5852 5850 5847 5845 5843 5840 5838 5836 5833 5831 5830 5829 5830 5831 5832 5833 5835 5836
5872 5873 5873 5873 5871 5873 5873 5871 5870 5868 5867 5868 5868 5868 5868 5868 5867 5866 5866 5865 5864 5863 5862 5861 5860 5859 5857 5855 5852 5850 5847 5844 5842 5840 5838 5835 5833 5830 5828 5826 5823 5822 5822 5822 5822 5824 5825 5827 5829
5869 5870 5870 5869 5867 5870 5869 5867 5865 5865 5863 5864 5864 5864 5863 5863 5862 5861 5861 5860 5859 5858 5857 5855 5854 5852 5850 5848 5845 5842 5840 5837 5834 5832 5830 5827 5825 5823 5820 5818 5816 5814 5814 5814 5814 5816 5817 5819 5822
5867 5867 5866 5866 5866 5867 5866 5864 5862 5860 5859 5859 5859 5859 5859 5858 5857 5856 5856 5855 5854 5852 5851 5849 5847 5845 5843 5840 5837 5834 5832 5829 5826 5824 5822 5819 5817 5815 5813 5811 5809 5808 5807 5806 5807 5808 5809 5811 5814
5866 5866 5865 5863 5863 5863 5862 5859 5857 5854 5855 5854 5854 5854 5854 5854 5853 5852 5851 5850 5848 5847 5845 5843 5841 5838 5835 5832 5830 5827 5824 5821 5818 5816 5814 5812 5810 5807 5805 5804 5803 5801 5800 5799 5799 5800 5801 5804 5806
5864 5864 5863 5861 5861 5859 5858 5855 5851 5849 5850 5851 5851 5851 5850 5850 5848 5847 5846 5844 5842 5841 5838 5836 5834 5831 5828 5825 5821 5818 5815 5812 5810 5807 5805 5803 5801 5799 5797 5796 5795 5794 5793 5793 5792 5792 5794 5795 5798
5861 5860 5859 5858 5857 5855 5855 5849 5844 5844 5846 5848 5848 5848 5847 5846 5844 5842 5840 5839 5836 5834 5832 5829 5826 5823 5820 5816 5813 5809 5806 5803 5800 5798 5796 5794 5792 5790 5789 5787 5787 5786 5786 5786 5785 5785 5786 5788 5790
5859 5859 5858 5856 5853 5851 5848 5843 5838 5837 5841 5844 5845 5845 5843 5842 5840 5838 5835 5833 5830 5828 5825 5822 5819 5815 5812 5808 5804 5800 5797 5793 5790 5787 5785 5784 5781 5780 5779 5778 5777 5777 5777 5777 5777 5778 5779 5780 5782
5859 5858 5856 5854 5851 5847 5843 5841 5837 5837 5839 5841 5841 5841 5840 5838 5835 5833 5830 5827 5824 5821 5817 5814 5810 5807 5803 5799 5795 5790 5786 5782 5779 5776 5774 5772 5770 5768 5767 5767 5766 5766 5766 5767 5768 5769 5770 5772 5774
5859 5857 5854 5851 5847 5844 5842 5840 5837 5838 5839 5839 5838 5837 5835 5833 5831 5827 5824 5821 5818 5814 5810 5806 5802 5798 5793 5789 5784 5780 5775 5771 5768 5765 5762 5760 5758 5756 5755 5755 5755 5755 5755 5756 5758 5759 5761 5763 5765
5858 5856 5854 5851 5846 5841 5839 5836 5834 5836 5838 5837 5836 5834 5832 5829 5826 5822 5818 5814 5810 5806 5802 5797 5792 5788 5783 5778 5774 5769 5764 5760 5756 5753 5750 5747 5745 5743 5742 5741 5741 5742 5742 5743 5745 5747 5749 5752 5754
5857 5856 5855 5853 5849 5844 5840 5838 5835 5837 5837 5836 5834 5832 5829 5825 5821 5817 5812 5808 5803 5798 5793 5788 5782 5777 5772 5767 5762 5758 5753 5748 5744 5741 5737 5734 5732 5729 5728 5727 5727 5727 5728 5729 5731 5733 5736 5738 5742
5856 5854 5853 5851 5850 5848 5844 5840 5839 5837 5836 5834 5831 5828 5825 5821 5816 5811 5806 5801 5796 5790 5785 5779 5773 5767 5761 5755 5750 5745 5741 5736 5732 5728 5725 5721 5719 5716 5714 5713 5712 5713 5713 5714 5716 5718 5721 5724 5727
5855 5853 5851 5850 5848 5847 5846 5842 5838 5836 5834 5832 5829 5825 5821 5816 5811 5806 5800 5794 5789 5782 5776 5769 5763 5756 5750 5744 5739 5734 5729 5724 5719 5715 5712 5708 5704 5702 5699 5697 5697 5697 5697 5698 5700 5702 5705 5708 5712
5853 5851 5850 5849 5847 5846 5845 5842 5836 5833 5831 5829 5825 5821 5816 5811 5806 5800 5794 5788 5781 5774 5767 5760 5753 5747 5740 5733 5727 5722 5716 5711 5706 5701 5697 5692 5689 5686 5683 5681 5680 5680 5680 5681 5683 5685 5688 5692 5696